CAPE
1717 1879 1935 1974 1873 1850 1865 1978 1891 1781 1620 1338 1357 1212 1153 1343 1387 1798 1990 1994 2112 2284 2157 2040 2296 2387 2372 2509 2339 2428 2793 2920 2786 3214 3530 4017 3812 3610 3682 4140 4672 3919 3714 3381 2841 2889 3124 3261 3245 3158 3158 3154 2984 2646 2489 2814 3239 3113 3536 3757 3189 3287 3564 4041 3583 3078 3377 3053 2384 1654 1274 1223 679 693 849 661 446 506 673 563 755 805 685 651 1811
1639 1819 1967 1903 1936 1854 1758 1744 1912 1799 1592 1202 1320 1021 926 1219 1408 1516 1611 1980 1901 1803 1905 1976 1917 1983 2192 2145 2124 2281 2783 3277 3017 2862 3260 3450 3675 3141 3319 3589 4251 3764 3283 3741 3537 2821 3079 3605 3533 3090 3144 2850 2571 2257 2233 2344 2358 2407 2613 2750 2621 2641 3204 3507 3427 3357 3080 2926 2640 2462 1763 1274 969 885 947 1109 1188 1444 1126 824 579 416 356 1217 1759
1576 1851 2051 1991 1907 1872 1951 1885 1726 1762 1575 1089 796 666 642 945 1269 1398 1323 1402 1791 1664 1606 1582 1821 2002 1880 2069 2345 2504 2714 3099 3165 2983 2957 3277 3627 3296 2852 3226 3624 3737 3576 3450 3262 3261 3115 3082 3043 2815 2388 2376 2653 2091 1736 2026 2410 2406 2270 2300 2530 2564 2828 3542 3519 3429 3085 2792 2772 1659 987 1239 1179 1148 1163 1168 1518 1508 1767 1356 731 761 1228 1578 1509
1796 2219 2498 2351 1930 1904 1988 1888 1572 1646 1370 1148 649 655 515 583 943 1118 1098 1032 864 1426 1337 1501 1796 2010 2133 2084 2447 2764 2939 3135 2994 2939 3175 3407 3468 3684 3470 3275 3311 3413 3444 3275 3220 3188 3067 3234 2986 2732 2622 2374 2453 2158 2034 2176 2741 3084 3065 3117 2965 2980 2965 3443 4124 3380 3118 2450 2311 2002 1591 1179 1256 967 1028 1028 1202 1459 1894 2024 1827 1862 2199 1886 1246
1916 2226 2593 2824 2588 2302 1977 1820 1747 1722 1620 1129 791 558 525 431 609 942 889 740 669 700 1456 1518 1632 2175 2304 2467 2870 3222 3240 3293 3430 2986 2703 2853 3156 3193 3329 3289 3451 3468 3333 3297 3372 3404 3358 3310 3202 3162 3188 2735 2713 2363 2069 2061 2258 2639 2840 2878 2858 2886 3053 3152 3726 3809 3492 2975 2443 2282 2234 2075 1751 1528 1495 1405 1522 1504 2149 2704 2961 3107 3298 2503 1694
2006 2382 2734 2927 2932 2689 2091 1920 1845 1940 1868 1602 943 654 585 528 534 814 1020 645 661 566 798 1530 1679 1980 2231 2541 2788 3345 3362 3454 3489 3447 2921 2570 2732 2889 2991 3287 3204 3296 3338 3213 3238 3386 3200 3168 3120 3136 3005 2990 2856 2598 2541 2515 2609 2576 2666 2474 2250 2384 2898 3323 3384 3303 3141 3105 2535 2053 1836 1882 1990 2136 2128 2030 1932 1659 1899 2241 2619 3198 3871 3112 2264
2470 2560 2478 1648 2800 2869 2486 1734 1735 2009 2097 2086 1766 1055 710 612 535 566 833 912 552 516 520 933 1550 2043 2466 2703 2910 3166 3496 3344 3542 4008 3688 3140 2893 2896 2664 2467 2609 2679 2911 2782 2725 2732 2771 2840 3010 3068 3086 3116 2950 2802 2795 2935 2817 2586 2422 2569 2598 2380 2664 2968 2998 3136 3290 3273 2878 2615 2431 2208 2041 1900 1924 2754 2892 2233 2240 2726 3036 2778 3216 3513 3229
2891 2587 1870 1855 2238 3035 2725 2203 2571 2451 2468 2572 2487 2086 1323 904 875 792 675 799 754 528 411 546 1011 1654 2168 2654 3189 3625 3875 3812 4094 4068 3961 3462 2950 2553 2453 2234 2177 2321 2426 2622 2745 2567 2464 2407 2363 2486 2685 3042 3149 3214 3030 2970 3281 3199 2861 2874 2969 3132 3041 2827 2624 2761 2982 2193 1442 2237 2142 2135 2830 2541 1676 2196 2867 3011 3361 3048 2894 2892 2901 3128 3075
2314 2578 2498 2436 2430 2817 3046 2405 2868 2972 2805 3121 2992 2840 2396 1803 1469 1219 992 840 638 713 524 365 628 1250 1927 2252 2656 3320 3592 3778 3616 3900 4036 3915 3630 2430 2291 2394 2578 2530 2537 2475 2483 2539 2627 2611 2617 2619 2471 2648 3229 3358 3972 4530 3648 3475 3503 3562 3797 3760 3946 4051 3562 2846 2532 2165 2135 2331 2306 2430 2453 2576 2019 1896 2026 2384 2763 2650 2872 2860 2591 2515 2749
2582 2498 2477 2478 2572 2472 2450 2951 3002 3435 3304 3169 3438 3474 3139 2686 2034 1723 1433 970 953 835 813 900 1112 1232 1657 2156 2703 3412 3617 3502 3752 3678 3495 3427 3530 2986 3104 2123 2083 2140 2578 3187 2527 2199 2223 2331 2419 2387 2550 2435 2768 4087 3779 3128 2711 2623 2634 3253 4236 4488 3997 3366 3147 2595 2797 3035 3035 1657 1837 2117 1965 2111 1560 1790 1914 2636 2925 3332 3031 2670 2535 2532 2413
2057 2177 2215 1971 2656 2384 1963 2946 3078 3333 3240 3064 2237 2306 2607 3052 2608 2689 2583 2133 1841 1774 1775 1920 1974 1766 1790 1696 2500 2700 3064 2638 2836 3148 2668 2464 2919 2762 2250 2708 2765 2750 2378 2493 2522 2378 2248 2151 2398 2428 2208 2399 3159 3927 3725 3500 3470 3080 2923 3286 4162 4167 3972 3564 3422 3546 2845 2460 2117 2580 1926 1518 1402 1124 1065 934 1318 1908 2479 2743 2678 2380 2267 2115 1807
1907 2033 2339 2447 2510 1750 1501 1792 2137 2674 3076 3640 2849 2471 2780 2351 3273 3285 3098 2627 3062 2708 2388 2498 2653 2600 2551 2364 1991 2111 1345 1297 1569 2398 1851 1578 1963 2059 2193 2328 2403 2341 2736 2147 2236 2301 2258 2247 2006 2443 1972 2042 2144 2599 3347 3472 3033 3348 3452 3336 3279 3207 3466 3578 3670 3170 3018 2875 2600 2413 1699 1975 1566 1578 1237 961 1660 2201 2621 2824 2622 2424 2442 2144 1885
1892 1963 2284 2256 1952 1471 1307 1134 1774 2176 2460 1612 1217 1124 1481 2028 3195 3081 2703 2524 2167 2363 2890 3017 2636 2454 2452 2466 2360 1927 1091 1465 1665 1925 1732 1361 1138 1211 1901 1980 1792 1983 2127 2500 2752 2878 2922 2624 2518 2734 2615 1722 2106 1952 2475 2705 3481 2982 2776 3107 3200 3218 3320 3421 3251 3470 2900 2837 2374 1678 1955 1302 973 1235 1125 1790 2398 2059 1992 1944 2320 2452 2504 2108 1929
1809 1819 1766 1889 1815 1451 1297 1216 1228 1264 1255 1144 854 927 1028 957 1382 1625 1792 2426 2523 2629 2765 2009 1904 1780 2008 2508 2583 2434 1417 1383 1475 1340 1193 1025 919 958 1296 1708 1612 1374 2510 2794 2781 2733 2858 3064 3049 2965 2854 2468 2452 2410 2414 2575 2920 1810 1625 2108 2686 3039 3062 2360 2080 2309 2531 2409 2349 2316 2700 2511 2069 2531 2479 3483 3303 2425 2088 1769 1877 1821 1780 1917 1935
2184 1752 1347 1149 1060 1015 1027 1022 961 936 972 986 959 791 909 1021 1293 1844 1974 1896 1983 2213 2489 1912 1722 1791 1558 1394 1359 1060 996 1128 961 831 788 824 840 845 1340 1450 1690 1940 2040 2151 2301 2492 2700 2807 2526 2060 2782 2944 2682 2316 2324 2275 2359 2115 1748 1615 1835 1741 1963 2075 2790 2933 3012 2534 2428 2527 2424 3037 3039 3085 2688 4146 3186 3142 2594 2312 2289 1924 1751 1626 1506
1228 1166 979 757 814 795 807 886 928 839 745 822 796 721 875 1008 1177 1174 1141 1106 1041 949 824 903 1071 1121 826 772 757 807 678 750 732 682 627 706 731 769 1339 1364 1341 1500 1616 1834 1995 2042 2083 2006 1858 2140 2120 1570 1905 1580 1674 2044 1697 1624 1478 1978 2334 1603 2549 1755 1794 2136 2653 3642 3751 2574 2474 3466 1636 2949 2796 2844 3162 2844 2565 2084 1769 1766 1545 1356 1237
795 762 721 721 669 583 583 657 686 723 779 880 928 896 900 916 850 685 626 522 502 470 442 453 501 520 580 592 848 735 670 649 744 823 846 874 948 1022 1311 1466 1484 1641 1686 1820 1960 1940 1930 1788 1649 1509 1287 1720 1304 1204 1087 1097 1447 1338 1360 1439 1521 1822 1956 1552 1577 1835 2174 2470 2472 2355 2491 2526 2511 2562 2142 1825 1831 2443 2038 1390 1344 1387 1276 994 694
688 648 586 550 474 488 499 505 678 652 549 678 614 519 441 406 490 485 521 539 405 388 310 376 618 553 616 494 504 639 674 579 615 789 807 804 854 898 985 1212 1546 1533 1597 1716 1689 1665 1515 1263 1373 1349 1036 982 895 853 812 770 1159 1174 1093 1078 901 1944 2093 1682 1304 1386 1275 1645 1894 1891 1975 2047 2070 1917 1616 1377 1336 1390 1466 1128 964 416 396 422 191
452 444 432 388 426 404 291 256 424 513 590 513 540 418 472 508 559 591 555 464 377 272 287 297 265 324 372 328 354 432 473 582 568 533 516 494 470 450 690 791 958 790 909 846 844 923 1041 1009 609 554 520 478 496 538 537 504 500 650 691 730 1071 1302 990 1804 1561 1482 1038 1028 1104 1262 1236 1136 1127 1047 1018 1112 960 828 680 1196 520 64 95 118 50
368 304 282 278 228 182 221 173 308 398 437 417 357 295 269 303 207 132 220 191 134 193 188 158 140 134 208 237 259 282 278 339 385 412 505 554 557 521 456 469 459 477 436 394 382 378 358 306 389 226 178 211 258 320 396 455 501 534 544 562 568 946 657 513 949 1332 939 1044 1476 1189 957 772 685 665 651 462 387 384 189 148 93 21 16 10 3
258 239 249 182 135 65 131 167 175 155 152 187 237 234 266 172 174 157 154 168 168 165 191 237 222 196 221 238 223 246 267 298 297 296 339 364 364 331 283 257 270 263 236 209 282 255 217 184 142 124 115 116 136 171 234 271 321 370 432 496 509 509 507 513 540 776 1040 982 817 1027 692 594 557 507 395 312 279 106 103 86 93 116 105 60 0
206 214 184 160 170 204 152 98 109 113 106 100 101 82 68 129 175 185 170 179 169 161 165 158 166 157 160 174 183 200 195 203 198 198 225 236 227 213 189 174 173 176 166 167 146 133 148 161 146 122 101 80 78 11 0 101 110 103 73 84 117 154 181 196 195 348 304 821 1225 802 638 527 380 363 228 110 88 71 74 87 84 75 63 33 0
132 85 84 82 76 80 80 116 140 115 134 179 91 63 33 6 17 25 75 120 175 185 186 166 157 152 131 116 116 89 69 58 87 138 146 158 121 97 83 87 103 121 111 102 86 80 88 97 99 113 115 118 109 55 0 0 0 0 0 0 0 0 0 1 5 44 203 833 1143 665 500 377 256 280 157 66 120 34 11 9 6 28 34 14 0
23 0 0 0 0 0 0 2 15 120 180 145 81 26 9 6 9 3 1 16 45 65 80 88 84 88 82 74 72 64 58 53 44 48 52 71 69 70 86 90 96 95 87 87 84 78 68 66 68 76 83 85 80 0 0 0 0 0 0 0 0 0 2 4 8 14 30 93 228 266 124 112 277 168 132 81 47 40 21 41 34 20 28 22 6
0 0 0 0 0 0 0 0 0 14 84 43 59 51 21 6 5 12 8 2 2 5 32 52 64 72 70 66 75 83 94 94 82 31 20 30 56 71 67 65 67 68 65 60 41 50 47 41 54 74 89 83 12 0 0 0 0 0 0 0 0 0 3 5 11 13 18 5 41 22 28 56 107 91 82 19 14 0 4 35 33 28 15 15 5
0 0 0 0 0 0 0 0 0 0 0 19 56 14 22 17 4 5 31 26 28 19 4 1 0 0 2 24 18 36 53 73 20 10 12 44 60 51 52 38 30 39 50 48 50 50 32 0 0 0 51 48 0 17 1 2 0 0 0 0 2 2 4 9 0 2 10 18 9 12 27 53 13 22 2 8 52 44 17 4 6 10 12 9 1
0 0 0 0 0 0 0 0 0 0 0 0 0 0 0 0 0 0 2 4 9 10 5 1 0 0 4 0 0 0 0 0 0 0 0 0 2 1 0 0 0 0 0 0 6 0 0 0 2 0 1 0 3 0 0 0 0 3 2 6 14 17 18 27 30 8 22 15 15 23 20 12 0 2 34 27 15 8 4 12 6 1 0 0 0
0 0 0 0 0 0 0 0 0 0 0 0 0 0 0 0 0 0 1 0 1 0 0 0 0 0 0 0 0 0 0 0 0 0 0 0 0 0 0 0 0 0 0 0 0 0 1 0 47 348 189 81 16 20 2 6 9 21 4 10 15 16 4 6 22 27 19 20 15 6 16 17 7 3 0 0 1 1 0 0 0 2 2 0 3
0 0 0 0 0 0 0 0 0 0 0 0 0 0 0 0 0 0 0 0 0 0 0 0 0 0 0 0 0 0 0 0 0 0 0 0 0 0 0 0 0 0 0 0 0 0 1 0 0 0 0 0 0 5 1 9 24 25 14 10 17 12 11 10 15 14 13 5 1 3 3 5 2 2 4 3 1 0 0 0 0 0 2 4 1
0 0 0 0 0 0 0 0 0 0 0 0 0 0 0 0 0 0 0 0 0 0 0 0 0 0 0 0 0 0 0 0 0 0 0 0 0 0 0 0 0 0 0 0 0 0 2 0 0 0 0 4 4 3 1 4 14 12 8 1 2 2 8 4 4 5 4 0 6 2 0 0 2 2 1 0 0 0 0 0 2 3 3 3 0
0 0 0 0 0 0 0 0 0 0 0 0 0 0 0 0 0 0 0 0 0 0 0 0 0 0 0 0 0 0 0 0 0 0 0 0 0 0 0 0 0 0 0 0 63 0 0 0 0 0 1 1 2 1 1 1 0 2 2 0 0 0 5 4 0 0 0 0 0 0 0 0 0 0 0 0 0 0 0 2 20 4 1 0 0
0 0 0 0 0 0 0 0 0 0 0 0 0 0 0 0 0 0 0 0 0 0 0 0 0 0 0 0 0 0 0 0 0 0 0 0 0 0 0 0 0 0 0 0 175 0 0 0 0 0 0 0 0 0 0 0 0 0 0 0 0 0 0 0 0 0 0 0 0 11 8 8 2 2 3 0 0 0 0 0 0 0 0 0 0
70 52 7 2 0 0 0 0 0 0 0 0 0 0 0 0 0 0 0 0 0 0 0 0 0 0 0 0 0 0 0 0 0 0 0 0 0 0 0 0 0 0 0 0 0 0 0 0 0 4 1 7 8 8 4 1 0 0 0 0 0 0 0 0 0 0 0 1 1 3 6 6 0 2 0 0 0 0 0 0 0 0 0 0 0
0 83 92 8 14 0 0 0 0 0 0 0 4 0 0 0 0 0 0 0 0 0 0 0 0 0 0 0 0 0 0 0 0 0 0 0 0 0 0 0 0 0 0 0 0 0 0 0 0 3 2 1 1 3 4 2 2 0 0 0 0 1 0 0 0 0 0 0 0 0 12 11 0 0 0 0 0 0 0 0 0 0 0 0 0
0 6 0 0 23 3 0 0 0 0 0 46 68 23 13 0 0 1 2 2 3 2 0 0 0 0 0 0 0 0 0 0 0 0 0 0 0 0 0 53 31 0 0 0 0 0 0 0 0 0 1 1 1 0 3 5 4 4 4 1 0 0 0 0 0 0 0 0 0 0 0 0 0 0 0 0 5 8 2 0 0 0 0 0 0
0 0 0 0 7 0 3 0 0 0 0 1 12 18 9 12 8 6 2 8 5 16 10 3 0 0 0 0 0 0 0 0 0 0 0 0 0 0 130 0 0 0 0 0 0 0 0 0 0 0 0 0 0 0 0 0 0 0 0 1 1 0 0 0 0 0 0 0 0 0 0 0 0 4 4 2 1 0 0 0 0 0 0 0 0
10 10 3 0 0 5 8 8 14 18 0 1 0 4 8 25 15 14 14 4 17 19 7 33 0 0 0 0 0 0 0 0 0 0 0 0 0 9 0 0 0 0 0 0 0 0 0 0 0 0 0 0 0 0 0 0 0 0 0 0 0 0 0 0 0 0 0 0 0 0 0 0 0 0 0 0 0 0 0 0 0 0 0 0 0
46 10 19 6 16 0 5 22 26 0 28 9 16 4 5 7 9 18 9 6 10 11 19 52 29 36 33 24 0 0 0 0 0 0 0 0 0 0 0 0 0 0 0 0 0 0 0 0 0 0 0 0 0 0 0 0 0 0 0 0 0 0 0 0 0 0 0 0 0 0 0 0 0 0 0 0 0 0 0 0 0 0 0 0 0
2 22 0 0 0 23 20 11 17 12 16 12 14 4 2 7 14 10 10 14 12 10 26 29 18 18 30 59 2 7 0 4 7 5 1 0 0 0 0 0 0 0 0 0 0 0 0 0 0 0 0 0 0 0 0 0 0 0 0 0 0 0 0 0 0 0 0 0 0 0 0 0 0 0 0 0 0 0 0 0 0 0 0 0 0
0 2 21 0 5 8 15 24 28 18 26 18 17 23 27 21 17 16 18 13 11 11 9 5 11 6 29 44 111 36 31 15 6 2 6 4 1 0 0 0 0 0 0 0 0 0 0 0 0 0 0 0 0 0 0 0 0 0 0 0 0 0 0 0 0 0 0 0 0 0 0 1 0 0 0 0 0 0 0 0 0 0 0 0 0
0 1 6 2 2 12 16 23 24 24 25 18 17 26 25 20 16 19 25 22 20 19 20 19 25 50 19 22 0 18 29 8 4 1 1 8 9 8 3 0 0 0 0 0 0 0 0 0 0 0 0 0 0 0 0 0 0 0 0 0 0 0 0 0 0 0 0 0 0 0 0 0 0 0 0 0 0 0 0 0 0 0 0 0 0
0 4 4 10 24 20 16 21 25 21 24 27 23 21 17 14 11 17 9 11 18 14 12 36 63 105 0 0 0 0 23 18 3 0 2 7 9 15 4 4 2 2 0 0 0 0 0 0 0 0 0 0 0 1 0 0 0 0 0 0 0 0 0 0 0 0 0 0 0 1 0 0 0 0 0 0 0 0 0 0 0 0 0 0 0
11 2 11 3 5 16 18 18 24 20 25 22 14 20 14 14 20 11 14 15 9 15 36 30 35 39 1 0 0 0 8 7 6 0 0 0 10 9 8 8 8 5 1 0 0 0 0 0 2 4 1 0 1 0 0 0 0 0 0 0 0 1 0 1 1 0 0 0 0 0 0 0 0 0 0 0 0 0 0 0 0 0 0 0 0
26 15 24 18 22 26 24 25 16 17 15 11 15 18 15 23 12 13 10 11 22 35 40 44 36 78 50 2 0 2 10 13 8 3 0 0 0 3 4 0 0 0 0 0 0 0 0 0 0 4 5 3 2 3 0 0 0 0 0 2 2 2 1 2 2 2 2 1 2 1 2 1 0 0 0 0 0 0 0 0 0 0 0 2 3
7 19 21 25 27 34 25 27 15 17 5 10 18 5 8 10 7 6 6 6 17 26 33 26 60 118 81 68 38 32 30 24 7 0 0 0 0 0 0 0 0 1 0 3 1 0 0 0 0 4 6 2 2 2 0 0 0 1 2 2 2 2 4 2 7 3 1 0 4 1 0 1 2 0 0 0 2 1 0 0 1 2 3 5 7
1 1 4 8 12 18 16 15 20 7 9 5 8 9 5 2 3 10 9 6 13 13 20 44 59 68 51 78 40 12 4 2 3 1 0 0 0 0 1 4 6 4 10 7 5 3 1 0 3 2 3 4 4 4 2 3 3 5 4 4 5 5 5 7 8 7 0 5 3 0 0 4 4 3 3 3 1 2 4 4 4 6 7 7 7
6 5 4 6 6 7 8 2 4 7 14 5 5 6 5 0 2 6 20 20 26 28 22 17 18 37 46 78 29 20 4 1 4 2 0 0 0 0 0 2 1 3 10 8 10 5 6 5 4 4 4 4 5 5 4 4 5 6 6 6 7 5 8 8 8 7 2 1 3 5 6 0 5 6 0 0 0 0 9 7 8 10 12 10 10
8 6 8 10 5 10 15 16 12 11 10 11 15 10 4 2 1 4 17 22 32 21 18 15 9 2 4 3 0 0 0 0 0 0 0 0 1 2 2 1 1 2 4 4 7 7 4 4 3 4 2 6 5 4 5 3 2 9 9 8 5 0 0 1 3 7 3 3 4 9 0 0 1 4 0 5 7 10 10 9 9 11 11 10 11
2 6 5 6 5 3 8 8 13 12 12 8 10 10 16 11 8 4 3 1 1 0 0 0 1 3 9 42 34 18 10 4 3 14 3 4 1 3 6 5 4 7 6 4 2 7 9 6 5 6 6 6 7 5 1 5 7 2 0 1 2 3 2 2 2 1 1 4 0 6 0 8 0 12 10 11 11 10 10 12 12 11 10 12 16
2 3 1 0 0 4 7 7 4 6 11 9 9 11 13 13 11 11 6 5 0 1 0 1 1 2 2 3 1 1 6 2 2 6 3 2 2 3 5 8 8 8 7 5 3 1 2 7 5 5 3 5 6 9 9 0 0 2 1 1 2 2 2 0 0 0 5 9 2 0 8 11 10 12 11 11 11 11 12 11 12 11 13 16 14
1 0 0 0 0 1 1 4 2 7 10 9 6 12 10 10 11 11 12 12 9 12 10 7 5 2 2 0 1 0 2 2 0 2 4 3 1 1 1 2 5 4 8 5 6 4 4 0 0 3 4 4 3 1 0 0 0 0 0 0 2 2 0 0 2 1 0 0 1 8 9 9 12 10 12 11 13 14 14 10 10 11 19 6 23
Wind_Speed
13 14 13 13 13 13 13 13 10 10 9 9 9 9 9 8 7 8 8 8 8 8 9 8 8 7 6 7 7 8 9 8 8 8 8 7 6 5 4 4 3 3 3 1 1 2 2 2 1 1 1 1 2 2 2 5 6 5 7 6 6 7 7 6 4 2 3 3 1 1 3 3 3 5 2 4 3 7 6 7 8 8 10 10 18
14 15 14 14 12 13 12 14 13 12 11 10 10 10 10 10 10 9 8 9 9 9 9 9 9 8 8 8 8 8 9 10 8 9 8 7 6 6 6 5 4 4 4 4 3 2 3 3 2 3 5 4 4 4 4 5 6 7 9 9 8 7 9 7 6 3 2 3 3 2 3 4 4 6 5 4 6 7 7 8 8 8 10 13 9
16 16 15 15 14 13 12 12 13 13 12 12 12 12 13 12 12 10 9 10 11 10 10 10 10 10 10 10 11 10 10 9 10 9 9 8 7 6 7 8 7 6 6 6 6 6 5 4 4 5 6 6 7 6 6 5 5 6 5 7 7 8 10 11 8 6 4 4 5 5 5 6 6 6 7 7 8 9 9 9 10 9 11 10 10
19 18 17 16 15 14 14 13 12 13 13 14 13 14 14 15 14 12 11 11 10 12 10 10 12 13 12 12 11 11 11 11 10 10 10 8 8 8 8 8 8 7 7 6 7 8 8 7 6 7 8 7 7 7 7 7 8 8 8 8 8 9 9 11 12 9 7 5 6 5 6 6 7 7 9 12 11 12 12 12 11 11 11 10 11
20 20 19 18 17 17 16 15 14 13 13 14 14 14 15 15 15 13 13 13 12 12 14 13 12 14 13 13 12 12 12 12 12 11 11 11 10 9 10 9 9 8 7 8 8 8 8 8 8 10 11 10 10 10 10 10 9 8 8 9 9 10 11 12 12 12 11 8 6 6 7 7 9 9 11 13 15 15 16 16 15 14 14 11 11
20 20 21 20 19 19 17 17 16 16 15 14 14 15 16 16 15 16 14 14 14 14 14 15 15 14 14 14 14 14 14 14 14 13 12 12 13 12 12 11 10 10 9 9 9 10 10 9 9 9 10 11 11 11 11 10 10 9 8 8 9 10 11 11 11 11 11 11 9 8 8 8 9 11 13 14 15 15 16 17 17 17 17 14 14
20 19 21 18 20 20 20 19 18 19 18 17 17 18 17 17 17 17 18 16 15 15 15 16 16 16 16 15 15 15 15 15 16 16 14 14 14 14 13 13 12 12 12 10 10 10 11 11 11 10 10 10 10 10 11 12 11 9 9 9 9 9 10 10 11 11 11 12 13 12 11 11 10 11 13 17 16 16 16 18 18 19 19 18 16
20 20 20 19 18 19 19 20 20 22 21 21 20 19 20 19 19 20 19 19 18 17 17 17 17 16 16 17 17 17 18 18 18 17 17 15 15 15 14 14 13 13 13 13 12 12 11 11 11 12 11 12 11 11 11 12 12 11 11 11 10 9 9 10 11 12 12 11 10 13 14 13 15 15 13 17 17 18 20 20 19 20 20 21 20
19 19 19 19 19 20 22 21 23 24 23 24 23 21 21 21 22 22 22 21 21 21 19 18 17 18 18 18 19 20 19 19 20 20 19 18 19 14 14 15 14 14 14 13 14 13 13 13 13 13 13 14 14 14 14 16 14 13 13 12 11 11 12 13 16 16 14 14 13 14 14 14 15 16 16 17 18 19 20 20 20 20 22 22 24
21 21 20 21 23 23 22 24 24 26 25 23 23 23 23 23 23 23 23 23 23 23 23 21 20 19 20 20 20 21 20 20 22 24 22 21 20 20 26 24 19 17 16 16 16 15 14 15 15 16 18 15 14 17 17 16 14 12 13 14 14 14 14 13 14 14 14 13 14 14 14 16 13 14 17 20 21 23 22 22 20 21 21 22 23
23 24 24 24 29 33 28 28 27 26 25 24 23 20 22 25 26 26 26 26 25 25 25 24 22 22 21 21 20 21 19 25 26 26 25 23 23 25 24 21 19 18 16 17 18 18 17 17 17 18 20 17 17 19 19 18 18 16 13 12 12 13 14 15 16 17 15 13 15 16 17 16 14 11 12 20 22 21 22 21 21 22 21 21 22
25 26 26 30 36 41 37 32 29 29 27 27 29 25 26 25 27 29 28 26 27 25 25 25 25 24 24 21 21 21 34 33 38 36 32 29 24 24 24 23 22 19 18 17 20 22 21 20 22 26 24 24 20 19 18 18 18 17 17 15 13 11 10 14 17 18 17 16 16 15 15 19 18 16 13 18 23 23 23 23 23 23 22 22 23
26 26 27 31 36 42 40 35 32 33 36 35 33 33 33 32 30 28 27 26 25 26 27 26 25 25 24 23 24 36 33 39 37 39 37 35 33 25 23 23 21 20 19 21 25 25 24 23 22 23 26 18 18 21 21 21 19 19 16 16 16 15 15 13 14 15 19 19 18 16 16 17 17 18 17 20 26 24 25 26 27 27 27 25 24
23 25 26 26 30 38 41 40 37 38 40 40 39 37 36 34 32 29 26 28 27 27 33 32 32 26 27 32 32 33 39 39 38 38 37 34 33 28 26 24 23 21 24 28 28 27 26 27 24 22 23 23 23 23 23 22 26 29 22 17 19 18 19 18 18 19 19 19 20 18 19 20 20 20 21 26 27 25 25 26 28 29 29 28 28
20 24 28 30 29 29 31 34 37 39 41 43 41 39 39 40 38 37 36 32 33 33 34 36 33 34 34 32 35 42 41 42 40 38 34 33 33 28 30 28 28 29 29 29 29 27 27 27 25 21 23 24 24 25 24 25 26 26 24 23 22 26 26 22 19 25 25 26 22 21 21 23 23 22 23 27 26 26 26 26 27 28 29 31 32
21 21 22 24 25 24 23 27 32 36 44 47 44 44 46 46 47 45 42 39 38 39 39 36 37 36 35 31 33 40 44 46 42 38 37 31 30 31 32 33 31 29 29 29 30 30 30 30 28 26 28 24 34 40 35 30 25 23 22 24 26 26 30 31 31 33 33 32 29 27 27 31 31 27 33 30 31 32 31 29 31 32 31 32 32
24 23 21 20 23 25 23 24 28 32 39 47 48 48 49 49 47 46 44 38 40 44 45 40 32 33 36 34 33 43 44 46 44 40 38 37 32 32 32 32 31 30 30 30 29 30 31 33 32 29 29 30 42 40 41 34 28 23 23 25 27 27 32 32 32 38 40 42 42 42 38 38 37 37 40 40 38 35 33 30 32 33 33 31 30
29 28 29 29 29 29 26 22 24 29 33 44 51 53 51 48 47 46 45 39 40 45 47 43 38 41 48 47 43 42 43 47 47 44 42 42 37 35 35 32 32 32 30 29 29 30 32 31 36 35 36 37 40 40 38 34 28 26 25 27 25 26 29 32 33 36 43 43 44 45 42 39 39 39 40 36 35 32 32 30 33 35 33 31 28
33 32 33 33 33 33 30 26 23 22 23 30 39 45 47 49 51 51 48 45 44 46 50 49 44 44 47 49 47 43 43 47 50 48 47 46 42 40 39 37 36 36 34 33 34 33 33 38 46 43 39 38 38 40 39 35 32 30 31 32 30 27 27 30 31 30 31 35 38 39 41 42 38 38 40 36 30 30 28 31 30 nan nan 31 nan
32 31 32 32 33 35 34 32 29 24 20 20 23 27 30 34 40 47 51 52 52 50 50 51 47 44 46 48 46 42 42 46 50 52 51 50 47 43 45 43 41 39 38 38 36 36 37 37 43 47 43 41 40 39 40 38 37 35 35 35 34 29 35 34 29 28 27 31 35 37 38 41 42 42 41 39 40 37 31 29 nan nan nan nan nan
32 32 32 34 35 nan 34 35 36 34 31 31 31 28 26 26 28 32 38 45 51 52 52 52 50 48 46 48 48 46 44 46 49 53 51 51 51 48 46 46 44 42 41 41 40 40 40 41 41 51 47 44 42 42 40 39 38 37 35 35 38 38 36 32 31 26 28 30 32 36 38 41 43 43 43 43 43 41 39 nan nan 40 40 nan nan
34 34 34 34 34 34 34 nan 36 36 36 35 35 nan nan 30 29 29 29 32 37 41 43 48 51 50 47 46 47 45 44 49 47 50 50 48 48 49 47 47 46 43 42 41 41 41 41 42 42 48 49 nan nan nan nan 38 36 34 nan nan 35 34 34 33 33 31 27 27 32 38 38 41 44 45 47 46 nan nan nan nan nan nan nan nan nan
35 nan nan nan nan nan nan 33 32 32 32 31 nan nan nan nan nan nan nan 33 30 29 29 32 39 45 47 47 47 nan nan nan nan 47 47 46 46 nan nan nan 45 45 44 43 nan nan nan nan nan 45 44 42 40 nan nan nan nan nan nan nan nan nan nan nan nan nan 34 31 35 37 38 41 43 46 48 nan 48 nan nan nan nan nan nan nan nan
nan nan nan nan nan nan nan nan nan 31 32 31 nan nan nan nan nan nan nan nan nan nan nan nan nan nan nan nan nan nan nan nan nan nan nan nan nan nan nan nan nan nan nan nan nan nan nan nan nan nan nan nan nan nan nan nan nan nan nan nan nan nan nan nan nan nan nan nan 37 40 43 45 47 46 44 nan nan nan nan nan nan nan nan nan nan
nan nan nan nan nan nan nan nan nan nan nan nan nan nan nan nan nan nan nan nan nan nan nan nan nan nan nan nan nan nan nan nan nan nan nan nan nan nan nan nan nan nan nan nan nan nan nan nan nan nan nan nan nan nan nan nan nan nan nan nan nan nan nan nan nan nan nan nan nan nan nan nan 45 nan nan nan nan nan nan nan nan nan nan nan nan
nan nan nan nan nan nan nan nan nan nan nan nan nan nan nan nan nan nan nan nan nan nan nan nan nan nan nan nan nan nan nan nan nan nan nan nan nan nan nan nan nan nan nan nan nan nan nan nan nan nan nan nan nan nan nan nan nan nan nan nan nan nan nan nan nan nan nan nan nan nan nan nan nan nan nan nan nan nan nan nan nan nan nan nan nan
nan nan nan nan nan nan nan nan nan nan nan nan nan nan nan nan nan nan nan nan nan nan nan nan nan nan nan nan nan nan nan nan nan nan nan nan nan nan nan nan nan nan nan nan nan nan nan nan nan nan nan nan nan nan nan nan nan nan nan nan nan nan nan nan nan nan nan nan nan nan nan nan nan nan nan nan nan nan nan nan nan nan nan nan nan
nan nan nan nan nan nan nan nan nan nan nan nan nan nan nan nan nan nan nan nan nan nan nan nan nan nan nan nan nan nan nan nan nan nan nan nan nan nan nan nan nan nan nan nan nan nan nan nan nan 36 38 nan nan nan nan nan nan nan nan nan nan nan nan nan nan nan nan nan nan nan nan nan nan nan nan nan nan nan nan nan nan nan nan nan nan
nan nan nan nan nan nan nan nan nan nan nan nan nan nan nan nan nan nan nan nan nan nan nan nan nan nan nan nan nan nan nan nan nan nan nan nan nan nan nan nan nan nan nan nan nan nan nan nan nan nan nan nan nan nan nan nan nan nan nan nan nan nan nan nan nan nan nan nan nan nan nan nan nan nan nan nan nan nan nan nan nan nan nan nan nan
nan nan nan nan nan nan nan nan nan nan nan nan nan nan nan nan nan nan nan nan nan nan nan nan nan nan nan nan nan nan nan nan nan nan nan nan nan nan nan nan nan nan nan nan nan nan nan nan nan nan nan nan nan nan nan nan nan nan nan nan nan nan nan nan nan nan nan nan nan nan nan nan nan nan nan nan nan nan nan nan nan nan nan nan nan
nan nan nan nan nan nan nan nan nan nan nan nan nan nan nan nan nan nan nan nan nan nan nan nan nan nan nan nan nan nan nan nan nan nan nan nan nan nan nan nan nan nan nan nan nan nan nan nan nan nan nan nan nan nan nan nan nan nan nan nan nan nan nan nan nan nan nan nan nan nan nan nan nan nan nan nan nan nan nan nan nan nan nan nan nan
nan nan nan nan nan nan nan nan nan nan nan nan nan nan nan nan nan nan nan nan nan nan nan nan nan nan nan nan nan nan nan nan nan nan nan nan nan nan nan nan nan nan nan nan 45 nan nan nan nan nan nan nan nan nan nan nan nan nan nan nan nan nan nan nan nan nan nan nan nan nan nan nan nan nan nan nan nan nan nan nan nan nan nan nan nan
nan nan nan nan nan nan nan nan nan nan nan nan nan nan nan nan nan nan nan nan nan nan nan nan nan nan nan nan nan nan nan nan nan nan nan nan nan nan nan nan nan nan nan nan nan nan nan nan nan nan nan nan nan nan nan nan nan nan nan nan nan nan nan nan nan nan nan nan nan nan nan nan nan nan nan nan nan nan nan nan nan nan nan nan nan
nan nan nan nan nan nan nan nan nan nan nan nan nan nan nan nan nan nan nan nan nan nan nan nan nan nan nan nan nan nan nan nan nan nan nan nan nan nan nan nan nan nan nan nan nan nan nan nan nan nan nan nan nan nan nan nan nan nan nan nan nan nan nan nan nan nan nan nan nan nan nan nan nan nan nan nan nan nan nan nan nan nan nan nan nan
nan nan nan nan nan nan nan nan nan nan nan nan nan nan nan nan nan nan nan nan nan nan nan nan nan nan nan nan nan nan nan nan nan nan nan nan nan nan nan nan nan nan nan nan nan nan nan nan nan nan nan nan nan nan nan nan nan nan nan nan nan nan nan nan nan nan nan nan nan nan nan nan nan nan nan nan nan nan nan nan nan nan nan nan nan
nan nan nan nan nan nan nan nan nan nan nan nan nan nan nan nan nan nan nan nan nan nan nan nan nan nan nan nan nan nan nan nan nan nan nan nan nan nan 49 nan nan nan nan nan nan nan nan nan nan nan nan nan nan nan nan nan nan nan nan nan nan nan nan nan nan nan nan nan nan nan nan nan nan nan nan nan nan nan nan nan nan nan nan nan nan
nan nan nan nan nan nan nan nan nan nan nan nan nan nan nan nan nan nan nan nan nan nan nan nan nan nan nan nan nan nan nan nan nan nan nan nan nan nan nan nan nan nan nan nan nan nan nan nan nan nan nan nan nan nan nan nan nan nan nan nan nan nan nan nan nan nan nan nan nan nan nan nan nan nan nan nan nan nan nan nan nan nan nan nan nan
nan nan nan nan nan nan nan nan nan nan nan nan nan nan nan nan nan nan nan nan nan nan nan nan nan nan nan nan nan nan nan nan nan nan nan nan nan nan nan nan nan nan nan nan nan nan nan nan nan nan nan nan nan nan nan nan nan nan nan nan nan nan nan nan nan nan nan nan nan nan nan nan nan nan nan nan nan nan nan nan nan nan nan nan nan
nan nan nan nan nan nan nan nan nan nan nan nan nan nan nan nan nan nan nan nan nan nan nan nan nan nan nan nan nan nan nan nan nan nan nan nan nan nan nan nan nan nan nan nan nan nan nan nan nan nan nan nan nan nan nan nan nan nan nan nan nan nan nan nan nan nan nan nan nan nan nan nan nan nan nan nan nan nan nan nan nan nan nan nan nan
nan nan nan nan nan nan nan nan nan nan nan nan nan nan nan nan nan nan nan nan nan nan nan nan nan nan nan nan 47 nan nan nan nan nan nan nan nan nan nan nan nan nan nan nan nan nan nan nan nan nan nan nan nan nan nan nan nan nan nan nan nan nan nan nan nan nan nan nan nan nan nan nan nan nan nan nan nan nan nan nan nan nan nan nan nan
nan nan nan nan nan nan nan nan nan nan nan nan nan nan nan nan nan nan nan nan nan nan nan nan nan nan nan nan nan nan nan nan nan nan nan nan nan nan nan nan nan nan nan nan nan nan nan nan nan nan nan nan nan nan nan nan nan nan nan nan nan nan nan nan nan nan nan nan nan nan nan nan nan nan nan nan nan nan nan nan nan nan nan nan nan
nan nan nan nan nan nan nan nan nan nan nan nan nan nan nan nan nan nan nan nan nan nan nan nan nan 55 nan nan nan nan nan nan nan nan nan nan nan nan nan nan nan nan nan nan nan nan nan nan nan nan nan nan nan nan nan nan nan nan nan nan nan nan nan nan nan nan nan nan nan nan nan nan nan nan nan nan nan nan nan nan nan nan nan nan nan
nan nan nan nan nan nan nan nan nan nan nan nan nan nan nan nan nan nan nan nan nan nan nan nan nan nan nan nan nan nan nan nan nan nan nan nan nan nan nan nan nan nan nan nan nan nan nan nan nan nan nan nan nan nan nan nan nan nan nan nan nan nan nan nan nan nan nan nan nan nan nan nan nan nan nan nan nan nan nan nan nan nan nan nan nan
nan nan nan nan nan nan nan nan nan nan nan nan nan nan nan nan nan nan nan nan nan nan nan nan nan nan nan nan nan nan nan nan nan nan nan nan nan nan nan nan nan nan nan nan nan nan nan nan nan nan nan nan nan nan nan nan nan nan nan nan nan nan nan nan nan nan nan nan nan nan nan nan nan nan nan nan nan nan nan nan nan nan nan nan nan
nan nan nan nan nan nan nan nan nan nan nan nan nan nan nan nan nan nan nan nan nan nan nan nan nan 58 nan nan nan nan nan nan nan nan nan nan nan nan nan nan nan nan nan nan nan nan nan nan nan nan nan nan nan nan nan nan nan nan nan nan nan nan nan nan nan nan nan nan nan nan nan nan nan nan nan nan nan nan nan nan nan nan nan nan nan
nan nan nan nan nan nan nan nan nan nan nan nan nan nan nan nan nan nan nan nan nan nan nan nan nan nan nan nan nan nan nan nan nan nan nan nan nan nan nan nan nan nan nan nan nan nan nan nan nan nan nan nan nan nan nan nan nan nan nan nan nan nan nan nan nan nan nan nan nan nan nan nan nan nan nan nan nan nan nan nan nan nan nan nan nan
nan nan nan nan nan nan nan nan nan nan nan nan nan nan nan nan nan nan nan nan nan nan nan nan nan nan nan nan nan nan nan nan nan nan nan nan nan nan nan nan nan nan nan nan nan nan nan nan nan nan nan nan nan nan nan nan nan nan nan nan nan nan nan nan nan nan nan nan nan nan nan nan nan nan nan nan nan nan nan nan nan nan nan nan nan
nan nan nan nan nan nan nan nan nan nan nan nan nan nan nan nan nan nan nan nan nan nan nan nan nan nan nan nan nan nan nan nan nan nan nan nan nan nan nan nan nan nan nan nan nan nan nan nan nan nan nan nan nan nan nan nan nan nan nan nan nan nan nan nan nan nan nan nan nan nan nan nan nan nan nan nan nan nan nan nan nan nan nan nan nan
nan nan nan nan nan nan nan nan nan nan nan nan nan nan nan nan nan nan nan nan nan nan nan nan nan nan nan nan nan nan nan nan nan nan nan nan nan nan nan nan nan nan nan nan nan nan nan nan nan nan nan nan nan nan nan nan nan nan nan nan nan nan nan nan nan nan nan nan nan nan nan nan nan nan nan nan nan nan nan nan nan nan nan nan nan
nan nan nan nan nan nan nan nan nan nan nan nan nan nan nan nan nan nan nan nan nan nan nan nan nan nan nan nan nan nan nan nan nan nan nan nan nan nan nan nan nan nan nan nan nan nan nan nan nan nan nan nan nan nan nan nan nan nan nan nan nan nan nan nan nan nan nan nan nan nan nan nan nan nan nan nan nan nan nan nan nan nan nan nan nan
nan nan nan nan nan nan nan nan nan nan nan nan nan nan nan nan nan nan nan nan nan nan nan nan nan nan nan nan nan nan nan nan nan nan nan nan nan nan nan nan nan nan nan nan nan nan nan nan nan nan nan nan nan nan nan nan nan nan nan nan nan nan nan nan nan nan nan nan nan nan nan nan nan nan nan nan nan nan nan nan nan nan nan nan nan
Wind_Direction
257 253 246 248 249 250 252 255 257 255 258 263 261 262 260 259 257 254 259 264 263 273 276 270 263 260 244 243 248 250 251 245 246 246 250 255 255 243 235 259 281 273 286 303 328 324 345 12 354 316 297 292 274 293 313 310 317 315 310 318 325 324 325 328 338 349 335 321 283 294 256 253 260 264 262 281 262 268 263 285 294 308 312 309 313
253 251 248 246 248 251 251 254 258 256 259 262 268 265 263 261 260 258 262 266 265 267 268 269 274 269 264 258 245 239 248 254 246 251 254 261 262 266 279 290 285 275 263 281 288 273 291 326 323 319 326 337 333 333 323 327 328 334 329 329 331 326 322 327 329 327 334 317 325 284 282 297 310 309 298 275 269 268 267 275 293 302 305 306 312
253 252 251 248 251 249 251 256 260 264 265 263 268 270 270 267 263 263 262 261 269 265 267 270 265 266 262 256 256 249 242 244 249 247 251 261 262 253 255 275 286 287 299 302 301 296 304 305 310 306 302 322 325 327 327 329 323 323 330 321 325 322 321 324 322 327 333 324 322 323 319 313 305 298 295 294 283 291 288 293 291 297 297 302 310
251 255 253 253 255 253 253 250 257 266 267 266 268 270 267 269 269 266 264 258 260 265 263 261 269 270 264 261 262 257 254 251 246 252 257 255 254 257 258 257 264 279 286 292 299 302 305 304 303 301 298 302 307 310 311 317 321 318 323 320 323 324 318 321 329 324 318 318 314 309 305 308 310 312 311 305 303 290 295 292 297 298 295 303 309
258 257 257 254 252 254 255 254 254 255 259 261 271 274 272 268 268 270 267 266 261 257 264 262 258 265 266 266 264 263 260 259 257 253 250 254 257 256 259 263 270 276 279 282 286 288 292 299 301 299 303 305 309 313 313 320 315 315 318 318 320 322 322 326 327 325 321 320 308 309 308 315 318 315 310 308 302 303 303 305 301 300 299 299 299
252 260 264 264 261 257 252 257 256 254 252 253 258 264 268 268 267 266 264 263 260 257 255 258 261 262 261 259 259 260 257 254 255 253 250 250 254 254 254 256 259 261 264 271 280 285 288 293 292 291 293 301 303 304 302 303 303 310 318 317 322 322 326 328 327 324 325 320 315 310 313 312 308 307 306 304 304 299 298 300 303 300 299 294 285
250 248 246 250 262 265 265 250 250 254 253 248 247 252 256 262 264 262 261 258 258 257 257 255 251 254 258 259 257 258 258 255 251 252 247 242 242 245 245 252 255 258 263 265 267 280 288 290 291 291 290 290 294 294 296 299 299 304 307 311 315 320 322 322 319 320 322 326 321 316 313 314 308 308 306 303 302 301 298 296 295 294 298 295 291
254 259 259 257 258 264 262 266 258 251 249 249 247 246 252 255 258 261 260 260 257 255 253 256 257 255 255 259 261 258 258 257 255 252 250 249 249 246 256 250 252 257 257 259 261 265 276 281 284 284 285 286 287 287 285 284 284 290 293 297 301 304 303 303 305 291 282 286 304 306 307 303 305 302 302 306 304 303 302 298 296 293 295 298 296
245 251 256 260 265 263 257 254 259 258 251 250 250 249 251 254 256 257 260 261 261 260 259 255 254 256 257 257 259 262 259 261 260 261 259 258 255 251 252 257 262 265 264 264 267 266 263 265 266 268 263 256 265 268 262 256 265 275 278 281 284 287 286 287 283 283 292 300 303 299 297 300 308 307 300 302 302 300 295 292 291 293 294 294 295
244 247 250 255 255 255 260 257 258 262 261 257 251 254 257 254 254 256 257 259 261 262 259 258 256 256 256 259 260 261 260 261 267 270 268 260 258 253 245 239 239 239 248 261 262 265 268 266 268 271 261 250 255 278 286 285 280 277 273 276 278 280 280 280 282 284 287 288 282 282 286 276 271 294 306 297 296 297 297 296 291 288 289 290 293
245 247 249 252 252 247 245 257 254 264 264 261 266 262 257 258 256 254 253 254 254 257 261 261 259 256 255 257 264 266 264 246 240 278 274 264 257 260 266 267 268 266 256 252 259 258 258 261 261 274 279 279 283 289 289 291 294 295 288 280 267 271 278 278 277 278 277 279 283 282 277 280 294 291 293 298 294 290 287 287 288 286 286 287 286
252 255 256 256 258 263 260 249 257 259 264 263 249 244 257 258 254 257 257 257 257 256 257 258 258 258 258 258 257 257 254 250 243 241 244 249 258 261 263 264 264 266 269 269 264 261 260 258 254 247 245 246 255 271 284 293 295 291 290 294 298 296 278 274 275 278 277 271 269 274 280 289 286 283 290 290 292 293 294 292 293 291 289 289 287
259 261 259 259 259 263 265 265 260 262 263 263 264 258 244 244 253 257 257 255 253 254 255 254 255 257 258 256 254 254 256 253 255 251 251 251 251 251 261 261 258 254 260 260 258 259 259 257 255 263 269 270 256 259 257 256 269 277 272 286 288 291 299 298 291 285 279 278 275 274 280 280 290 295 294 287 286 292 293 297 298 297 295 294 289
259 262 267 270 270 265 263 262 258 256 256 256 254 252 257 257 251 252 248 249 249 248 247 244 243 243 249 251 252 256 256 247 251 259 260 262 262 260 258 256 262 265 258 252 253 254 255 256 254 254 256 259 259 257 256 258 258 257 260 265 267 277 283 294 303 307 300 289 288 289 285 286 287 286 284 287 292 296 298 300 301 301 300 296 289
258 261 261 262 267 272 269 261 258 257 257 257 257 258 255 250 251 255 253 251 250 249 247 247 243 242 244 251 255 252 250 242 245 249 254 256 265 265 262 259 253 250 254 256 256 256 255 257 260 255 252 255 257 253 256 256 258 265 269 271 266 257 259 258 273 286 290 290 291 289 282 276 272 280 286 287 290 294 295 298 300 302 302 301 302
271 269 268 268 274 278 280 276 269 265 262 259 257 257 255 251 251 252 252 252 254 252 250 247 247 244 239 235 248 255 252 243 240 241 246 251 252 261 262 261 258 254 254 255 256 256 254 250 248 246 252 252 248 243 244 253 259 259 260 264 266 269 269 270 262 259 262 264 272 277 275 277 278 274 267 271 283 286 286 293 299 300 303 305 304
273 277 278 276 274 279 290 295 290 282 270 261 255 254 256 255 254 255 256 255 253 256 254 253 246 239 236 234 241 253 251 245 241 240 242 242 250 255 256 260 259 257 254 253 254 255 254 251 248 248 246 250 248 245 245 246 256 258 260 262 264 264 268 266 266 262 259 261 262 263 267 270 270 266 265 262 268 272 279 285 291 294 297 300 302
264 265 267 265 268 273 276 281 284 279 269 259 252 249 251 253 255 256 261 263 260 259 256 253 250 245 243 239 239 248 250 245 239 238 239 240 243 249 251 252 253 254 254 252 252 253 252 243 244 246 244 247 246 250 249 253 258 259 260 261 260 263 263 265 264 265 273 275 274 273 270 266 266 268 268 266 271 277 285 287 286 288 288 289 295
267 270 273 276 275 274 273 273 278 281 275 263 253 248 251 256 256 254 257 261 260 261 260 258 254 250 248 246 244 247 248 245 240 239 239 239 241 249 249 249 250 252 253 251 250 251 251 255 255 252 251 251 253 256 258 258 260 262 262 262 264 265 265 264 266 267 270 275 275 275 275 276 277 275 269 260 262 268 279 281 282 nan nan 284 nan
274 275 276 277 277 277 276 277 278 275 271 274 267 255 258 264 263 259 256 257 259 260 258 256 255 254 249 245 245 246 246 243 239 239 241 241 238 244 250 249 251 252 252 252 253 253 253 253 260 260 253 253 253 257 261 263 264 265 267 269 271 270 262 260 263 270 277 281 282 283 281 280 277 275 276 278 270 262 263 268 nan nan nan nan nan
271 273 274 275 277 nan 280 281 282 282 280 282 284 283 281 287 285 274 264 259 259 259 256 254 253 252 249 243 244 246 244 240 240 241 243 242 239 239 249 249 250 251 251 254 255 255 256 257 258 263 258 254 254 258 262 264 263 265 267 267 264 261 258 263 263 275 281 281 281 284 285 282 281 279 278 274 275 280 280 nan nan 269 270 nan nan
271 272 272 273 276 279 280 nan 281 283 284 284 283 nan nan 285 290 290 286 276 266 260 257 256 255 254 254 248 245 248 249 243 239 242 243 243 244 243 247 248 248 250 251 255 257 256 256 258 259 263 262 nan nan nan nan 264 266 266 nan nan 263 261 261 264 264 265 273 279 286 285 286 286 287 286 279 275 nan nan nan nan nan nan nan nan nan
273 nan nan nan nan nan nan 279 281 284 285 286 nan nan nan nan nan nan nan 283 278 273 269 265 260 259 258 255 253 nan nan nan nan 243 244 245 249 nan nan nan 248 254 255 255 nan nan nan nan nan 256 252 251 252 nan nan nan nan nan nan nan nan nan nan nan nan nan 264 273 282 288 289 288 289 284 282 nan 272 nan nan nan nan nan nan nan nan
nan nan nan nan nan nan nan nan nan 280 282 282 nan nan nan nan nan nan nan nan nan nan nan nan nan nan nan nan nan nan nan nan nan nan nan nan nan nan nan nan nan nan nan nan nan nan nan nan nan nan nan nan nan nan nan nan nan nan nan nan nan nan nan nan nan nan nan nan 272 273 274 274 273 273 273 nan nan nan nan nan nan nan nan nan nan
nan nan nan nan nan nan nan nan nan nan nan nan nan nan nan nan nan nan nan nan nan nan nan nan nan nan nan nan nan nan nan nan nan nan nan nan nan nan nan nan nan nan nan nan nan nan nan nan nan nan nan nan nan nan nan nan nan nan nan nan nan nan nan nan nan nan nan nan nan nan nan nan 270 nan nan nan nan nan nan nan nan nan nan nan nan
nan nan nan nan nan nan nan nan nan nan nan nan nan nan nan nan nan nan nan nan nan nan nan nan nan nan nan nan nan nan nan nan nan nan nan nan nan nan nan nan nan nan nan nan nan nan nan nan nan nan nan nan nan nan nan nan nan nan nan nan nan nan nan nan nan nan nan nan nan nan nan nan nan nan nan nan nan nan nan nan nan nan nan nan nan
nan nan nan nan nan nan nan nan nan nan nan nan nan nan nan nan nan nan nan nan nan nan nan nan nan nan nan nan nan nan nan nan nan nan nan nan nan nan nan nan nan nan nan nan nan nan nan nan nan nan nan nan nan nan nan nan nan nan nan nan nan nan nan nan nan nan nan nan nan nan nan nan nan nan nan nan nan nan nan nan nan nan nan nan nan
nan nan nan nan nan nan nan nan nan nan nan nan nan nan nan nan nan nan nan nan nan nan nan nan nan nan nan nan nan nan nan nan nan nan nan nan nan nan nan nan nan nan nan nan nan nan nan nan nan 259 261 nan nan nan nan nan nan nan nan nan nan nan nan nan nan nan nan nan nan nan nan nan nan nan nan nan nan nan nan nan nan nan nan nan nan
nan nan nan nan nan nan nan nan nan nan nan nan nan nan nan nan nan nan nan nan nan nan nan nan nan nan nan nan nan nan nan nan nan nan nan nan nan nan nan nan nan nan nan nan nan nan nan nan nan nan nan nan nan nan nan nan nan nan nan nan nan nan nan nan nan nan nan nan nan nan nan nan nan nan nan nan nan nan nan nan nan nan nan nan nan
nan nan nan nan nan nan nan nan nan nan nan nan nan nan nan nan nan nan nan nan nan nan nan nan nan nan nan nan nan nan nan nan nan nan nan nan nan nan nan nan nan nan nan nan nan nan nan nan nan nan nan nan nan nan nan nan nan nan nan nan nan nan nan nan nan nan nan nan nan nan nan nan nan nan nan nan nan nan nan nan nan nan nan nan nan
nan nan nan nan nan nan nan nan nan nan nan nan nan nan nan nan nan nan nan nan nan nan nan nan nan nan nan nan nan nan nan nan nan nan nan nan nan nan nan nan nan nan nan nan nan nan nan nan nan nan nan nan nan nan nan nan nan nan nan nan nan nan nan nan nan nan nan nan nan nan nan nan nan nan nan nan nan nan nan nan nan nan nan nan nan
nan nan nan nan nan nan nan nan nan nan nan nan nan nan nan nan nan nan nan nan nan nan nan nan nan nan nan nan nan nan nan nan nan nan nan nan nan nan nan nan nan nan nan nan 263 nan nan nan nan nan nan nan nan nan nan nan nan nan nan nan nan nan nan nan nan nan nan nan nan nan nan nan nan nan nan nan nan nan nan nan nan nan nan nan nan
nan nan nan nan nan nan nan nan nan nan nan nan nan nan nan nan nan nan nan nan nan nan nan nan nan nan nan nan nan nan nan nan nan nan nan nan nan nan nan nan nan nan nan nan nan nan nan nan nan nan nan nan nan nan nan nan nan nan nan nan nan nan nan nan nan nan nan nan nan nan nan nan nan nan nan nan nan nan nan nan nan nan nan nan nan
nan nan nan nan nan nan nan nan nan nan nan nan nan nan nan nan nan nan nan nan nan nan nan nan nan nan nan nan nan nan nan nan nan nan nan nan nan nan nan nan nan nan nan nan nan nan nan nan nan nan nan nan nan nan nan nan nan nan nan nan nan nan nan nan nan nan nan nan nan nan nan nan nan nan nan nan nan nan nan nan nan nan nan nan nan
nan nan nan nan nan nan nan nan nan nan nan nan nan nan nan nan nan nan nan nan nan nan nan nan nan nan nan nan nan nan nan nan nan nan nan nan nan nan nan nan nan nan nan nan nan nan nan nan nan nan nan nan nan nan nan nan nan nan nan nan nan nan nan nan nan nan nan nan nan nan nan nan nan nan nan nan nan nan nan nan nan nan nan nan nan
nan nan nan nan nan nan nan nan nan nan nan nan nan nan nan nan nan nan nan nan nan nan nan nan nan nan nan nan nan nan nan nan nan nan nan nan nan nan 278 nan nan nan nan nan nan nan nan nan nan nan nan nan nan nan nan nan nan nan nan nan nan nan nan nan nan nan nan nan nan nan nan nan nan nan nan nan nan nan nan nan nan nan nan nan nan
nan nan nan nan nan nan nan nan nan nan nan nan nan nan nan nan nan nan nan nan nan nan nan nan nan nan nan nan nan nan nan nan nan nan nan nan nan nan nan nan nan nan nan nan nan nan nan nan nan nan nan nan nan nan nan nan nan nan nan nan nan nan nan nan nan nan nan nan nan nan nan nan nan nan nan nan nan nan nan nan nan nan nan nan nan
nan nan nan nan nan nan nan nan nan nan nan nan nan nan nan nan nan nan nan nan nan nan nan nan nan nan nan nan nan nan nan nan nan nan nan nan nan nan nan nan nan nan nan nan nan nan nan nan nan nan nan nan nan nan nan nan nan nan nan nan nan nan nan nan nan nan nan nan nan nan nan nan nan nan nan nan nan nan nan nan nan nan nan nan nan
nan nan nan nan nan nan nan nan nan nan nan nan nan nan nan nan nan nan nan nan nan nan nan nan nan nan nan nan nan nan nan nan nan nan nan nan nan nan nan nan nan nan nan nan nan nan nan nan nan nan nan nan nan nan nan nan nan nan nan nan nan nan nan nan nan nan nan nan nan nan nan nan nan nan nan nan nan nan nan nan nan nan nan nan nan
nan nan nan nan nan nan nan nan nan nan nan nan nan nan nan nan nan nan nan nan nan nan nan nan nan nan nan nan 291 nan nan nan nan nan nan nan nan nan nan nan nan nan nan nan nan nan nan nan nan nan nan nan nan nan nan nan nan nan nan nan nan nan nan nan nan nan nan nan nan nan nan nan nan nan nan nan nan nan nan nan nan nan nan nan nan
nan nan nan nan nan nan nan nan nan nan nan nan nan nan nan nan nan nan nan nan nan nan nan nan nan nan nan nan nan nan nan nan nan nan nan nan nan nan nan nan nan nan nan nan nan nan nan nan nan nan nan nan nan nan nan nan nan nan nan nan nan nan nan nan nan nan nan nan nan nan nan nan nan nan nan nan nan nan nan nan nan nan nan nan nan
nan nan nan nan nan nan nan nan nan nan nan nan nan nan nan nan nan nan nan nan nan nan nan nan nan 289 nan nan nan nan nan nan nan nan nan nan nan nan nan nan nan nan nan nan nan nan nan nan nan nan nan nan nan nan nan nan nan nan nan nan nan nan nan nan nan nan nan nan nan nan nan nan nan nan nan nan nan nan nan nan nan nan nan nan nan
nan nan nan nan nan nan nan nan nan nan nan nan nan nan nan nan nan nan nan nan nan nan nan nan nan nan nan nan nan nan nan nan nan nan nan nan nan nan nan nan nan nan nan nan nan nan nan nan nan nan nan nan nan nan nan nan nan nan nan nan nan nan nan nan nan nan nan nan nan nan nan nan nan nan nan nan nan nan nan nan nan nan nan nan nan
nan nan nan nan nan nan nan nan nan nan nan nan nan nan nan nan nan nan nan nan nan nan nan nan nan nan nan nan nan nan nan nan nan nan nan nan nan nan nan nan nan nan nan nan nan nan nan nan nan nan nan nan nan nan nan nan nan nan nan nan nan nan nan nan nan nan nan nan nan nan nan nan nan nan nan nan nan nan nan nan nan nan nan nan nan
nan nan nan nan nan nan nan nan nan nan nan nan nan nan nan nan nan nan nan nan nan nan nan nan nan 291 nan nan nan nan nan nan nan nan nan nan nan nan nan nan nan nan nan nan nan nan nan nan nan nan nan nan nan nan nan nan nan nan nan nan nan nan nan nan nan nan nan nan nan nan nan nan nan nan nan nan nan nan nan nan nan nan nan nan nan
nan nan nan nan nan nan nan nan nan nan nan nan nan nan nan nan nan nan nan nan nan nan nan nan nan nan nan nan nan nan nan nan nan nan nan nan nan nan nan nan nan nan nan nan nan nan nan nan nan nan nan nan nan nan nan nan nan nan nan nan nan nan nan nan nan nan nan nan nan nan nan nan nan nan nan nan nan nan nan nan nan nan nan nan nan
nan nan nan nan nan nan nan nan nan nan nan nan nan nan nan nan nan nan nan nan nan nan nan nan nan nan nan nan nan nan nan nan nan nan nan nan nan nan nan nan nan nan nan nan nan nan nan nan nan nan nan nan nan nan nan nan nan nan nan nan nan nan nan nan nan nan nan nan nan nan nan nan nan nan nan nan nan nan nan nan nan nan nan nan nan
nan nan nan nan nan nan nan nan nan nan nan nan nan nan nan nan nan nan nan nan nan nan nan nan nan nan nan nan nan nan nan nan nan nan nan nan nan nan nan nan nan nan nan nan nan nan nan nan nan nan nan nan nan nan nan nan nan nan nan nan nan nan nan nan nan nan nan nan nan nan nan nan nan nan nan nan nan nan nan nan nan nan nan nan nan
nan nan nan nan nan nan nan nan nan nan nan nan nan nan nan nan nan nan nan nan nan nan nan nan nan nan nan nan nan nan nan nan nan nan nan nan nan nan nan nan nan nan nan nan nan nan nan nan nan nan nan nan nan nan nan nan nan nan nan nan nan nan nan nan nan nan nan nan nan nan nan nan nan nan nan nan nan nan nan nan nan nan nan nan nan
nan nan nan nan nan nan nan nan nan nan nan nan nan nan nan nan nan nan nan nan nan nan nan nan nan nan nan nan nan nan nan nan nan nan nan nan nan nan nan nan nan nan nan nan nan nan nan nan nan nan nan nan nan nan nan nan nan nan nan nan nan nan nan nan nan nan nan nan nan nan nan nan nan nan nan nan nan nan nan nan nan nan nan nan nan
nan nan nan nan nan nan nan nan nan nan nan nan nan nan nan nan nan nan nan nan nan nan nan nan nan nan nan nan nan nan nan nan nan nan nan nan nan nan nan nan nan nan nan nan nan nan nan nan nan nan nan nan nan nan nan nan nan nan nan nan nan nan nan nan nan nan nan nan nan nan nan nan nan nan nan nan nan nan nan nan nan nan nan nan nan